User: anonymous   Login
Location: B?lite?ti
(46.2833°N, 22.7333°E)
Time: 04:01:54
(UTC+00:00)
Language:

NOSS 3-1 (A) - Orbit

View from above orbital plane
View from above orbital plane
View from above satellite
View from above satellite

Ground track
Ground track

The orbit data is extracted from the following two-line orbital elements,

1 26905U 01040A   21097.85567385 0.00000000  00000-0  00000-0 0    06
2 26905  63.4129  78.2450 0497682   1.5440 358.4560 13.40793888    07
Epoch (UTC): 07 April 2021 20:32:10
Eccentricity: 0.0497682
inclination: 63.4129°
perigee height: 734 km
apogee height: 1479 km
right ascension of ascending node: 78.2450°
argument of perigee: 1.5440°
revolutions per day: 13.40793888
mean anomaly at epoch: 358.4560°
orbit number at epoch: 0

The dashed part of the orbit path shows where the satellite is in the earth's shadow,  

DLR